sat.trackr.live / text

‹ back to catalog

STARLINK-30323

NORAD 57634 · 2023-122C

PAYLOAD ACTIVE UNKNOWN

§ Identity

Operator
Country
US
Launch date
2023-08-17
Launch site
AFETR
Launch vehicle
Mass (kg)
RCS (m²)

Purposes: comms

External: N2YO · Heavens-Above · Gunter

§ Orbital elements

Epoch: 2026-09-19T18:58:36.220800Z

Period
94.27 min
Inclination
43.0025°
Eccentricity
0.0001303
Mean motion
15.27577040 rev/d
Perigee alt
482.2 km
Apogee alt
484.0 km
Semi-major
6,861.2 km
B*
4.6326e-6
RAAN
65.1696°
Arg perigee
277.4512°
Mean anomaly
82.6191°
Rev number
17,202

§ Raw data

STARLINK-303231 57634U 23122C   26262.79069700 -.00000135  00000+0  46326-5 0  99962 57634  43.0025  65.1696 0001303 277.4512  82.6191 15.27577040172026

JSON: /api/v1/satellites/57634 · /tle

For live sub-satellite position, see the globe view (requires WebGL).

§ Visibility from observer

Set your observer location to see the next 7 days of passes ≥ 10°. The values pass through the URL so the page stays shareable.

No JS? Fill the form by hand. The geolocation button needs JavaScript.